User: anonymous
Location: Mentone
(34.5413°N, 85.5351°W)
Time: 22:19:29
(UTC-05:00)
Language:

Centaur AC-72 - Orbit

View from above orbital plane
View from above orbital plane
View from above satellite
View from above satellite

Ground track
Ground track

The orbit data is extracted from the following two-line orbital elements,

1 21907U 92013B   14112.46844575  .00000005  00000-0  00000+0 0  8630
2 21907 019.3639 279.3375 6959213 199.1317 254.2772 02.25605889182289
Epoch (UTC): 22 April 2014 11:14:33
Eccentricity: 0.6959213
inclination: 19.3639°
perigee height: 1089 km
apogee height: 35267 km
right ascension of ascending node: 279.3375°
argument of perigee: 199.1317°
revolutions per day: 2.25605889
mean anomaly at epoch: 254.2772°
orbit number at epoch: 18228

The dashed part of the orbit path shows where the satellite is in the earth's shadow,  

DLR